Location: Bas-Clignon
(44.2000°N, 6.6333°E)
Time: 03:22:27
(UTC+00:00)

Cosmos 1763 Rocket - Pass Details

Date: 03 February 2023
Orbit: 733 x 778 km, 74.0° (Epoch: 27 March)

Event Time Altitude Azimuth Distance (km) Brightness Sun altitude
Rises 18:18:18 0° 335° (NNW) 3,221 7.0 -16.9°
Reaches altitude 10° 18:20:43 10° 331° (NNW) 2,284 6.2 -17.3°
Maximum altitude 18:25:45 54° 255° (WSW) 900 4.2 -18.2°
Drops below altitude 10° 18:30:41 10° 178° (S) 2,241 5.9 -19.1°
Sets 18:33:03 0° 174° (S) 3,155 6.7 -19.5°
